sat.trackr.live / text

‹ back to catalog

COSMOS 2437

NORAD 32954 · 2008-025B

PAYLOAD ACTIVE UNKNOWN

§ Identity

Operator
Country
CIS
Launch date
2008-05-23
Launch site
PLMSC
Launch vehicle
Mass (kg)
RCS (m²)
0.87

External: N2YO · Heavens-Above · Gunter

§ Orbital elements

Epoch: 2026-09-13T05:06:20.842272Z

Period
115.87 min
Inclination
82.5014°
Eccentricity
0.0021499
Mean motion
12.42761077 rev/d
Perigee alt
1,478.0 km
Apogee alt
1,511.8 km
Semi-major
7,873.1 km
B*
5.0749e-4
RAAN
302.7530°
Arg perigee
135.4665°
Mean anomaly
332.7648°
Rev number
83,030

§ Raw data

COSMOS 24371 32954U 08025B   26256.21274123  .00000080  00000+0  50749-3 0  99962 32954  82.5014 302.7530 0021499 135.4665 332.7648 12.42761077830304

JSON: /api/v1/satellites/32954 · /tle

For live sub-satellite position, see the globe view (requires WebGL).

§ Visibility from observer

Set your observer location to see the next 7 days of passes ≥ 10°. The values pass through the URL so the page stays shareable.

No JS? Fill the form by hand. The geolocation button needs JavaScript.